Wind_Speed
18 19 21 24 26 26 25 23 21 20 21 21 21 22 22 23 24 25 26 26 27 28 28 29 30 32 33 34 35 36 38 40 42 44 45 47 48 49 51 53 54 55 56 57 57 57 57 57 57 57 57 57 57 56 55 54 54 53 52 51 50 49 46 46 45 41 38 39 39 37 37 40 42 42 42 42 43 44 42 40 40 42 42 41 42
21 21 24 26 27 26 25 23 22 22 22 22 22 22 23 24 25 26 26 27 27 28 30 31 32 32 33 34 36 37 39 40 42 44 46 48 49 50 51 53 54 56 57 58 59 59 59 59 59 59 59 59 59 59 58 58 57 57 56 55 54 51 48 49 49 46 40 39 41 41 39 40 40 40 43 44 43 43 42 39 37 40 42 42 42
23 24 26 27 27 26 26 24 24 24 23 23 24 24 24 25 25 26 27 27 28 29 30 31 32 33 34 35 36 37 39 40 42 44 45 47 49 51 53 54 55 56 57 59 60 61 61 61 61 61 61 62 62 62 61 61 60 60 59 58 57 55 53 52 51 50 46 42 43 44 42 43 42 40 41 44 45 46 45 42 39 39 42 43 43
26 26 27 27 27 27 27 26 26 26 25 25 25 25 25 26 26 26 27 28 29 30 31 32 33 33 34 35 36 37 39 40 42 43 44 45 47 49 52 54 56 57 57 58 60 61 62 62 62 62 62 62 62 62 63 63 63 63 62 60 60 60 59 57 55 55 52 47 46 46 46 45 46 44 43 43 44 46 48 47 45 44 44 44 44
28 28 28 28 28 28 27 27 27 27 27 27 26 26 27 27 27 27 28 29 30 31 32 32 33 33 34 34 36 37 38 39 41 42 43 43 44 46 49 53 55 56 57 58 60 61 61 60 59 59 58 59 60 61 62 63 64 65 65 64 63 63 63 61 58 57 58 54 50 49 49 49 49 47 46 46 45 46 47 47 48 50 50 48 48
29 29 30 30 30 28 27 28 28 28 28 28 27 27 28 28 28 28 28 29 31 32 32 32 32 33 33 34 36 37 38 38 40 41 42 42 42 44 46 49 53 55 57 59 60 60 60 59 57 56 55 56 57 57 57 59 61 64 66 66 66 66 65 63 58 56 58 59 57 54 52 52 52 50 50 50 49 47 47 46 47 49 51 51 50
30 30 31 31 31 29 29 29 29 29 28 28 28 28 29 30 29 29 29 30 31 32 31 31 32 32 33 34 35 36 37 37 38 40 41 41 41 42 44 46 49 53 57 59 60 59 58 57 54 53 52 52 52 52 53 55 57 60 63 66 67 68 67 64 61 58 58 59 59 58 57 56 55 53 52 53 53 50 48 47 47 48 49 51 52
31 32 31 31 31 30 30 31 30 29 28 28 28 29 30 30 30 30 31 31 31 31 31 32 32 33 33 33 34 35 35 37 37 38 38 39 40 40 41 42 44 48 52 56 57 56 55 53 51 50 49 47 47 47 49 50 52 54 56 59 63 66 67 67 65 63 62 61 60 59 59 59 58 57 56 56 56 53 51 51 51 50 50 51 52
32 33 32 31 31 30 31 31 30 29 28 28 29 30 30 30 30 31 32 32 31 31 31 32 33 33 34 33 33 34 35 36 36 36 36 37 38 39 39 39 40 42 45 50 52 51 51 50 49 49 48 46 44 44 45 46 47 49 50 51 55 60 63 66 66 65 63 62 62 61 59 57 57 58 60 60 58 56 55 56 56 54 52 52 52
33 32 32 32 31 31 31 31 30 29 29 29 30 31 31 31 31 32 33 33 32 31 32 33 34 34 34 33 33 34 34 35 35 35 34 35 37 38 37 37 38 39 40 43 46 47 48 49 49 49 48 47 45 45 45 45 46 46 47 47 49 52 57 61 64 65 64 62 62 62 61 59 56 55 58 61 61 59 59 59 59 57 55 54 54
33 32 32 32 31 31 31 31 30 30 30 31 32 31 31 31 32 33 33 33 32 32 32 33 34 34 34 33 33 34 34 35 34 34 33 34 35 37 37 37 38 37 37 39 42 45 47 49 50 50 49 48 48 47 47 46 46 47 48 48 47 48 51 56 60 63 65 64 62 61 62 64 63 60 59 59 62 64 63 61 61 60 59 57 55
33 32 32 31 31 31 31 31 31 31 32 32 31 31 31 32 33 34 34 34 33 33 33 33 34 34 34 33 33 34 35 35 34 33 32 32 33 36 38 38 38 38 38 40 43 46 48 49 50 51 50 50 50 50 49 48 47 48 50 49 48 47 49 51 55 58 61 63 62 61 61 63 66 66 62 58 59 63 67 65 63 62 61 60 57
34 33 32 32 32 32 32 32 32 32 32 31 31 31 32 33 33 34 35 35 34 34 33 33 34 33 33 33 33 34 35 35 34 33 32 31 31 33 37 39 40 40 41 43 45 47 48 49 50 51 51 52 52 52 51 50 49 50 51 50 49 49 50 51 52 54 57 61 63 61 60 62 66 68 65 61 58 59 63 65 65 63 61 60 59
35 33 33 33 33 34 33 32 32 31 31 30 31 32 32 33 34 35 35 35 34 33 33 33 33 33 32 32 33 35 35 35 34 32 31 31 30 31 34 37 41 43 44 46 47 48 49 49 50 51 52 53 54 54 53 52 51 51 51 50 50 51 52 52 52 52 53 58 62 61 59 61 65 66 67 67 64 59 58 61 65 67 64 61 61
35 34 33 33 34 33 32 31 30 30 30 30 31 32 33 33 34 35 35 35 34 33 33 32 32 32 32 32 33 35 35 34 33 32 31 31 31 31 31 33 36 40 44 47 49 49 49 50 50 51 52 53 54 54 53 52 52 51 50 50 51 51 51 51 52 53 53 56 61 62 60 61 64 66 67 68 69 67 63 59 61 66 67 65 64
35 34 33 33 33 32 30 30 29 29 30 31 31 32 33 34 34 35 35 34 33 33 32 32 32 32 32 32 33 34 34 33 32 32 31 32 32 32 32 32 33 35 39 43 47 49 50 50 50 51 52 53 53 53 53 52 52 51 50 49 49 49 49 49 51 53 54 55 58 60 60 59 61 65 68 69 70 72 71 66 61 62 65 67 67
34 33 32 31 31 30 30 29 29 29 30 30 31 32 33 34 34 34 33 33 32 32 32 31 31 32 32 32 33 33 33 32 31 31 31 31 32 33 33 34 34 34 35 37 41 45 49 50 51 51 52 53 52 52 53 52 51 49 49 49 48 48 48 50 52 54 55 55 55 56 56 55 55 59 63 65 67 69 71 72 68 65 64 66 67
32 32 30 29 30 29 29 29 29 29 30 30 31 32 32 33 32 32 31 31 31 31 30 31 31 31 32 32 32 32 32 31 31 31 31 32 32 33 34 35 35 36 36 36 37 40 43 47 50 52 52 52 52 52 52 51 49 49 49 49 49 50 50 51 52 54 55 55 55 55 55 54 53 52 55 57 59 62 65 67 67 67 67 67 66
31 30 29 29 29 28 29 29 29 29 29 30 30 31 31 31 30 29 29 29 29 30 30 30 30 31 31 31 31 30 30 31 31 31 32 32 33 34 35 35 36 37 37 38 38 38 39 42 46 49 51 52 52 52 51 50 49 50 50 49 50 50 50 50 51 52 54 54 55 55 55 56 55 53 52 53 53 55 58 60 61 64 66 67 68
31 30 29 29 28 28 29 29 29 29 29 29 29 29 29 29 28 27 28 28 29 29 29 29 29 29 29 29 29 29 30 31 32 32 33 34 35 36 36 36 37 38 38 39 39 39 39 40 41 44 47 50 52 52 51 50 49 50 49 49 49 49 49 49 50 50 51 52 54 55 55 56 56 55 55 54 53 53 53 54 57 60 62 64 67
31 30 30 29 29 28 29 29 29 28 28 28 28 28 27 26 26 27 27 28 28 28 28 28 28 28 27 27 27 29 30 32 33 33 34 34 35 36 37 37 38 38 39 40 40 41 41 41 41 41 43 46 49 51 51 50 49 49 49 49 49 48 48 48 49 49 48 49 51 53 54 54 55 54 54 53 54 54 53 52 52 53 55 57 59
31 31 30 30 29 28 29 29 28 27 27 27 27 26 26 25 25 26 27 26 26 27 27 28 28 27 26 26 27 29 30 31 32 32 32 33 33 33 33 34 35 36 37 38 40 41 42 42 43 42 42 43 45 48 50 50 50 50 50 50 49 49 48 47 47 47 46 46 47 49 51 52 53 53 52 52 52 53 54 54 52 51 52 53 54
31 31 30 29 29 28 28 28 27 27 26 26 25 25 25 25 25 25 25 25 25 26 26 27 26 26 26 26 27 28 29 30 30 30 30 29 28 27 28 29 30 32 34 35 37 38 40 41 42 43 43 43 43 44 47 50 51 51 50 50 49 49 48 47 46 45 45 44 44 46 49 50 51 51 51 51 51 52 53 53 52 52 52 52 52
30 30 30 29 28 28 27 27 26 26 25 25 25 24 24 24 24 24 24 23 24 25 25 25 25 25 25 26 27 28 28 28 28 27 26 25 24 25 26 28 31 32 32 32 33 34 36 37 39 40 42 42 42 42 44 48 51 51 51 50 49 48 47 46 45 43 43 43 43 43 45 47 48 49 50 49 50 51 51 50 49 50 52 53 53
29 29 29 28 28 27 26 26 26 25 24 24 24 24 23 23 24 23 22 22 23 23 24 24 24 25 25 26 27 28 27 27 26 25 24 24 25 26 29 31 33 33 30 28 28 29 30 31 32 34 36 38 39 40 43 46 49 51 51 50 49 48 47 46 44 42 41 41 40 40 41 43 45 46 47 48 48 49 49 48 47 48 49 51 53
28 28 28 27 27 26 26 26 25 25 23 23 23 23 23 23 23 22 21 21 21 22 23 23 23 24 25 26 27 28 28 27 25 24 24 24 25 27 29 31 32 30 25 22 21 21 22 23 24 25 27 29 32 35 38 42 46 48 50 50 49 48 46 45 43 42 40 39 38 38 38 40 41 42 44 45 46 47 47 46 47 48 49 50 50
27 27 27 27 26 26 25 25 25 24 23 22 22 22 22 21 21 21 20 20 21 21 21 21 22 23 24 25 26 27 27 26 25 24 24 24 25 26 28 30 28 24 20 17 17 17 17 17 18 19 20 22 24 28 32 37 41 44 46 47 48 47 46 44 43 42 40 39 38 38 38 38 38 39 41 42 43 44 44 44 46 47 48 49 49
26 25 26 26 26 25 25 24 24 23 22 21 21 21 20 20 20 19 19 19 20 20 20 20 21 22 23 24 24 25 25 25 25 24 23 23 24 25 26 26 23 18 16 16 16 15 15 16 16 16 16 17 19 21 25 29 34 38 41 43 45 45 45 43 42 41 41 40 39 39 39 39 39 39 41 41 41 42 42 43 44 46 47 49 49
25 25 26 26 25 25 24 24 23 22 21 21 20 19 19 19 19 18 18 18 19 20 20 20 20 21 22 23 24 24 25 25 25 24 23 22 22 23 22 20 17 15 13 14 14 13 13 13 12 12 12 13 15 17 19 22 25 29 33 36 39 41 42 41 41 40 40 39 39 40 40 40 41 41 42 43 43 44 44 45 46 47 48 49 49
25 25 26 26 25 24 24 23 22 21 21 20 19 18 18 18 18 18 17 18 18 19 19 19 19 20 20 20 21 22 24 25 25 25 23 21 20 20 18 15 14 13 13 12 13 13 12 11 10 10 10 11 12 13 16 18 20 22 25 28 30 33 35 37 37 37 37 37 38 38 39 39 40 41 43 44 45 46 47 48 50 50 51 52 52
25 26 26 25 24 23 23 22 21 20 20 19 18 17 16 16 17 17 17 17 18 18 19 18 18 18 18 18 19 20 22 23 24 23 21 19 18 18 16 15 14 14 14 14 15 15 14 12 11 12 12 12 13 14 15 17 18 19 21 22 24 26 29 31 32 33 33 34 35 35 36 37 39 40 41 42 44 45 47 48 50 52 53 55 55
26 27 26 24 23 22 21 20 19 19 19 18 17 17 16 15 16 16 17 17 17 18 18 18 18 17 17 17 18 19 21 22 23 22 21 19 18 17 15 15 16 16 17 17 18 18 18 17 16 15 15 16 16 18 18 18 18 18 18 20 21 22 24 27 28 29 30 31 32 33 35 36 37 38 39 40 41 43 45 47 48 50 51 52 53
27 27 24 22 21 21 20 18 17 17 18 17 17 16 15 15 15 16 16 17 17 18 18 18 18 17 16 16 16 18 19 21 23 23 23 22 21 20 18 17 15 15 16 17 18 19 20 20 19 18 18 19 19 19 19 19 19 19 20 20 21 21 21 22 24 26 27 28 28 30 31 32 33 34 35 35 37 38 41 44 47 49 50 51 50
27 25 23 21 20 19 18 17 16 16 17 17 16 16 15 15 15 16 16 16 16 17 18 18 18 17 16 15 15 16 17 18 20 21 21 21 21 21 19 17 15 14 13 13 14 15 16 16 16 16 16 16 16 17 17 18 19 19 20 20 19 17 16 17 20 22 23 24 24 26 27 29 30 30 31 32 32 34 36 39 42 45 47 48 48
24 22 21 20 19 18 17 16 16 16 16 16 16 16 15 15 15 16 16 16 16 16 17 17 18 18 18 16 14 14 15 16 16 17 17 17 17 17 16 15 14 13 12 12 12 13 14 14 14 14 14 13 12 12 12 14 15 15 16 16 16 14 12 12 14 17 20 22 23 24 25 26 27 28 28 28 29 30 32 33 35 37 40 41 42
20 20 19 18 17 17 17 16 16 16 16 16 16 16 16 15 15 15 16 16 16 16 16 17 17 18 18 17 16 15 14 14 15 15 15 15 15 15 15 15 15 15 15 15 15 15 16 17 17 17 17 17 16 14 13 12 11 11 12 13 14 15 14 13 12 12 13 16 18 20 21 23 24 25 26 26 26 27 27 27 27 29 31 32 34
17 17 17 17 17 16 16 16 16 16 16 16 16 16 15 15 16 16 16 16 16 16 16 16 17 17 18 18 18 16 15 15 15 15 15 15 15 15 15 15 15 15 15 16 16 16 17 17 18 19 19 19 20 19 18 16 15 14 13 12 13 14 15 15 15 15 14 13 14 15 16 17 18 19 21 23 23 23 23 23 22 22 24 25 27
16 15 15 16 16 16 16 16 16 16 16 16 16 16 16 16 16 16 16 16 16 16 16 16 16 17 17 18 19 18 18 17 17 16 16 16 16 16 15 15 15 15 15 15 15 15 16 17 17 17 18 18 18 19 18 18 18 17 16 15 14 14 13 13 13 13 13 14 14 15 16 17 18 18 19 20 20 19 19 19 19 20 20 20 22
14 14 14 14 14 15 15 15 15 15 15 16 17 17 16 16 16 16 16 16 16 16 16 16 16 16 17 18 19 19 19 19 19 18 18 18 18 17 17 16 16 15 15 15 15 15 15 16 16 16 17 16 16 16 16 15 15 15 15 14 14 13 13 12 11 10 10 10 11 11 13 15 17 18 18 17 16 16 17 17 18 20 21 20 22
14 14 14 14 14 14 15 15 15 15 15 16 17 17 17 17 17 17 16 16 17 17 17 17 16 16 16 17 18 19 19 19 20 20 20 20 20 19 19 18 17 16 16 15 15 15 15 16 16 16 17 16 16 15 14 14 13 12 11 11 11 10 11 11 11 11 11 11 11 10 10 11 10 11 14 15 15 17 18 17 17 18 19 21 23
14 14 15 15 14 14 15 15 14 15 15 15 16 17 18 18 17 17 17 17 17 17 18 18 17 17 17 17 17 18 19 19 20 20 20 21 21 20 20 20 19 18 17 16 16 16 16 16 16 16 16 16 16 15 14 13 12 11 10 10 9 9 9 9 10 10 10 10 10 10 9 10 8 5 8 12 14 15 16 15 12 11 10 11 15
13 13 14 16 15 14 15 15 14 14 15 16 17 17 18 18 18 18 18 18 17 18 18 18 18 18 18 18 18 18 19 19 19 20 20 20 21 21 21 20 20 19 18 18 17 17 17 17 17 17 16 16 16 15 15 14 13 11 10 10 9 9 8 8 8 9 9 9 9 9 8 8 8 7 4 3 6 8 11 13 12 11 9 7 7
15 14 14 15 15 14 14 14 15 15 15 16 17 18 18 18 18 18 18 18 18 18 18 19 19 19 19 18 19 19 19 19 19 19 20 20 20 20 21 21 21 20 20 19 19 18 18 18 18 18 17 17 16 15 15 14 13 12 11 10 10 10 9 9 9 9 9 9 9 9 9 9 8 8 7 6 4 4 6 8 9 9 8 8 9
17 16 14 14 15 15 14 14 14 14 15 16 17 18 18 19 19 19 19 18 18 18 18 19 19 19 19 19 19 19 20 20 20 20 19 19 19 20 20 20 21 21 20 20 20 20 19 19 19 19 18 18 17 16 15 14 13 12 11 11 10 10 10 10 10 10 10 10 10 10 11 10 10 10 9 9 8 8 8 9 9 10 11 12 13
20 19 18 16 15 16 15 15 14 15 15 16 17 18 19 19 19 19 19 19 19 19 19 19 19 20 20 20 20 20 20 20 20 20 20 20 20 19 20 20 20 21 21 21 20 20 20 20 20 20 19 19 18 17 16 15 14 13 12 12 11 11 10 10 11 11 11 11 11 11 11 11 11 11 11 11 11 12 12 12 13 14 14 15 16
24 24 23 21 19 18 18 18 17 17 17 17 18 18 19 20 20 20 20 20 19 19 19 19 19 19 20 20 20 21 21 21 21 21 21 21 21 20 20 20 21 21 21 21 21 21 21 21 21 21 20 20 19 19 18 17 15 14 14 13 13 12 12 12 12 12 13 13 13 13 13 13 13 13 13 13 13 14 14 15 15 16 17 18 18
30 29 28 27 25 23 23 22 21 20 20 19 19 19 20 21 21 21 20 20 20 19 19 19 19 20 20 20 20 21 21 21 22 22 22 22 22 22 22 22 22 22 22 22 22 22 22 22 21 21 21 21 20 20 19 19 18 17 16 15 15 14 14 14 15 15 15 15 15 15 16 16 16 16 16 16 16 17 17 17 18 19 19 20 21
32 32 32 32 31 29 28 26 25 23 23 22 21 21 21 21 22 21 21 20 20 19 18 18 19 19 20 21 21 21 21 22 22 22 23 23 23 23 23 23 23 23 23 23 23 23 23 22 22 22 22 22 22 21 20 20 20 19 19 18 18 17 17 17 17 17 17 18 18 18 18 18 19 19 19 20 20 20 20 21 21 22 23 24 25
29 29 30 32 33 32 31 30 28 27 26 24 22 22 22 22 22 22 21 20 20 19 19 19 19 20 21 22 22 22 23 23 23 23 23 23 23 24 24 24 24 24 24 24 24 24 24 24 23 23 23 23 22 22 22 21 21 21 20 20 20 19 19 19 19 19 19 19 20 20 20 21 21 21 22 22 23 23 23 24 24 25 26 27 27
27 27 27 28 30 31 31 31 30 31 30 28 24 23 23 23 23 23 22 21 21 21 21 21 22 22 23 23 24 24 24 24 24 24 25 24 24 24 24 25 25 25 25 25 25 25 25 25 25 25 24 24 23 23 23 23 23 22 22 21 21 21 21 21 21 21 21 21 21 22 22 22 23 23 23 24 24 25 26 26 26 27 27 28 29
26 26 26 26 26 28 30 32 32 32 32 30 26 24 24 24 24 24 24 23 23 23 23 23 24 24 24 24 25 25 25 24 24 24 25 25 25 25 25 25 25 25 25 26 26 26 25 26 25 25 25 25 25 24 24 24 23 23 23 22 22 22 22 22 21 22 22 22 23 23 23 23 23 24 24 25 25 26 27 27 28 28 29 29 30
Wind_Direction
286 281 277 272 269 270 273 276 277 277 275 273 272 273 274 274 274 274 273 273 272 271 270 270 270 270 270 269 268 267 266 265 265 265 264 263 261 258 256 254 251 249 249 249 249 250 250 251 251 250 250 250 249 249 249 250 250 251 253 254 255 257 257 257 258 257 256 259 262 262 260 258 256 256 256 256 259 259 255 251 250 251 251 250 249
287 282 277 274 274 275 276 277 278 277 276 276 276 276 275 275 275 275 274 274 273 273 273 273 274 274 274 273 272 271 270 269 268 267 266 264 262 260 259 257 254 251 249 248 249 249 249 250 250 250 249 249 249 248 247 248 249 250 250 251 252 253 255 256 256 256 253 253 258 259 258 260 260 258 256 256 255 254 254 252 251 253 253 252 252
287 282 279 278 278 278 278 279 279 277 277 277 277 277 277 277 277 277 278 278 278 277 276 275 275 275 275 276 276 275 276 275 274 272 269 266 263 261 258 257 256 254 251 248 248 248 249 249 249 249 248 248 248 247 246 245 246 248 249 250 251 250 251 255 256 256 253 250 253 256 255 257 261 260 257 256 253 250 252 252 253 256 257 255 254
286 284 282 281 280 279 280 280 278 277 277 276 277 278 278 279 279 279 279 280 280 279 278 277 276 276 277 278 279 280 280 281 281 279 275 270 266 262 259 256 254 254 252 250 248 248 249 249 249 249 249 248 248 247 246 245 244 246 247 248 250 249 250 253 255 256 255 250 249 252 252 253 256 258 257 257 256 253 253 252 252 255 258 258 257
286 284 283 281 280 279 279 279 277 276 276 276 277 279 281 282 282 280 279 279 280 280 280 280 279 278 279 281 281 282 283 285 286 284 280 275 271 267 262 258 255 253 251 251 250 248 248 250 251 252 252 251 250 248 248 247 245 244 244 245 247 248 249 251 253 255 256 253 248 247 249 250 252 254 256 257 257 257 256 255 254 255 258 260 259
286 285 284 283 282 281 281 278 276 275 275 276 278 281 283 284 283 281 281 282 283 282 281 281 280 280 281 283 284 284 285 287 288 287 284 281 278 275 269 262 257 253 249 249 250 249 247 249 251 252 254 254 254 252 251 249 247 245 244 244 245 246 247 248 249 252 255 255 251 247 246 248 249 250 253 255 256 256 256 256 256 257 259 260 259
288 286 285 285 284 284 282 280 278 278 277 278 280 283 285 285 284 284 286 287 287 285 283 282 282 282 283 284 285 286 287 289 290 288 285 284 284 281 276 269 260 254 250 248 249 249 247 248 251 252 254 256 257 257 255 253 251 248 246 245 244 245 246 246 246 246 250 253 253 250 248 247 248 249 249 251 253 253 254 256 257 258 259 259 259
288 286 284 285 285 284 282 281 281 281 280 281 284 285 286 285 285 288 291 290 289 287 286 286 285 285 285 285 286 287 287 288 290 289 286 284 285 284 280 275 266 258 252 250 251 251 248 249 252 252 254 256 256 257 258 257 256 253 251 249 247 246 246 246 245 244 247 251 251 251 250 249 249 250 249 249 251 251 251 254 254 255 256 258 259
286 285 285 285 285 284 283 282 282 282 283 285 286 286 285 285 288 291 292 292 290 289 288 288 287 286 286 286 287 288 288 287 288 290 287 282 282 282 281 277 271 263 255 252 253 252 248 249 252 252 253 255 253 253 255 257 258 257 255 253 251 249 248 247 247 245 246 250 251 251 250 249 251 253 251 249 249 250 250 251 252 252 254 256 258
284 285 285 285 285 284 283 283 283 284 286 286 286 286 285 287 290 292 292 292 292 291 290 289 287 287 286 286 288 289 289 288 287 289 287 281 278 278 278 275 272 266 258 253 252 250 248 251 253 253 253 253 251 251 253 256 258 258 257 255 254 252 250 249 248 246 245 248 252 252 250 249 251 254 253 249 248 249 249 249 250 252 252 253 255
285 285 285 285 285 285 285 285 286 287 287 286 285 286 286 289 291 292 292 292 292 292 291 289 288 287 286 286 288 290 290 289 287 286 286 281 276 274 274 272 269 265 258 251 247 246 249 253 254 254 254 253 251 252 253 256 259 259 257 256 255 255 253 251 249 246 244 246 250 251 248 247 248 251 253 251 249 248 248 249 250 251 251 252 253
285 286 286 286 286 286 286 287 287 287 286 286 286 287 288 290 292 292 292 292 292 292 291 290 288 287 286 287 289 291 291 289 286 284 284 283 278 272 269 268 266 261 255 249 246 247 251 253 254 255 256 255 254 254 255 256 259 261 259 257 257 257 256 254 252 249 244 244 248 249 247 246 247 249 251 250 249 248 248 248 249 250 251 252 253
286 287 288 289 289 288 288 287 287 287 286 287 287 288 289 291 292 292 292 292 292 292 291 289 289 287 287 288 290 292 292 289 286 283 283 283 281 275 269 265 262 259 255 252 251 252 253 254 255 256 257 257 256 255 256 257 260 262 260 259 259 259 257 255 253 251 246 244 248 251 250 247 247 248 249 248 248 249 248 247 248 249 250 252 252
287 288 289 289 288 287 287 287 287 287 288 289 289 289 290 292 292 292 292 292 292 292 291 290 289 288 288 289 290 292 292 290 287 284 284 284 284 281 274 267 262 259 257 256 255 255 255 256 257 257 257 257 257 257 257 258 261 263 260 258 259 259 258 256 254 252 249 246 247 250 250 248 246 247 249 249 249 249 248 248 246 246 247 250 251
287 288 287 286 285 286 286 286 287 288 289 289 290 291 292 292 293 293 292 292 292 292 291 291 290 290 290 290 291 291 291 290 287 285 285 286 286 285 282 275 268 262 259 257 256 256 257 257 257 257 257 257 257 258 258 260 262 262 259 257 258 258 258 256 254 252 249 246 246 247 249 249 248 249 250 251 250 248 248 247 247 245 245 246 248
287 286 285 284 284 285 286 286 287 288 289 289 290 291 292 292 293 293 293 293 293 293 293 292 292 292 292 291 292 292 291 290 287 286 286 286 287 287 286 283 278 271 265 260 257 257 257 257 257 257 257 258 258 258 260 262 262 260 257 256 257 257 258 257 256 255 252 249 248 247 248 249 249 248 248 249 249 249 248 247 246 246 246 245 245
285 284 284 284 285 285 286 287 287 288 288 289 290 291 292 293 293 293 293 293 293 293 293 293 293 293 293 293 293 293 292 291 289 287 286 287 288 288 287 285 283 279 274 268 262 258 256 256 256 256 257 258 259 260 261 261 260 257 256 256 256 256 257 257 257 257 257 255 253 251 250 250 250 248 247 247 248 249 249 249 249 248 247 247 246
284 283 283 284 284 284 285 286 286 287 288 289 290 292 293 294 294 293 293 293 294 294 295 295 295 294 294 295 295 295 295 294 292 291 290 290 289 288 286 285 283 281 279 276 270 264 259 256 255 255 257 258 259 260 261 260 257 255 255 256 257 257 257 257 259 260 260 259 257 255 252 251 251 250 248 248 249 249 249 250 251 250 249 249 249
283 284 284 284 283 284 285 286 286 287 288 290 292 294 295 294 294 293 293 294 295 295 296 296 296 297 297 297 298 299 299 298 298 296 295 293 291 288 286 283 281 279 278 277 275 271 266 262 258 255 256 257 258 259 259 257 255 255 255 256 257 258 258 259 261 262 261 259 257 255 254 252 250 249 249 250 251 251 250 249 250 250 249 250 251
283 284 284 283 284 284 285 285 285 286 289 292 294 296 296 294 294 294 295 296 297 297 298 298 299 299 300 301 302 303 303 302 301 300 297 294 292 289 287 284 281 278 276 275 275 273 271 267 263 259 256 255 255 255 255 254 253 253 255 256 257 257 258 260 262 263 261 258 256 255 254 252 251 250 250 251 252 254 252 250 249 250 251 250 251
283 284 284 283 283 283 284 284 284 286 290 294 296 296 294 294 295 297 299 299 299 300 301 302 302 303 304 305 305 305 304 303 302 300 297 294 291 289 287 285 283 280 277 274 273 272 270 269 266 263 259 256 254 253 253 253 252 252 253 254 255 255 256 258 261 263 261 259 257 255 254 252 251 250 251 251 252 252 252 250 250 252 253 253 252
283 284 283 282 282 282 282 282 284 287 291 294 295 295 293 294 297 299 300 300 301 303 305 305 306 306 306 307 307 306 305 304 302 300 298 295 293 292 290 289 287 284 280 276 273 270 268 267 266 264 261 258 255 253 251 251 250 250 250 251 252 253 253 255 258 261 260 258 256 255 253 252 250 249 250 250 250 251 251 250 250 252 254 255 253
284 283 282 281 280 279 280 282 284 288 291 293 294 294 293 295 299 300 300 301 304 306 308 308 308 307 307 308 308 308 308 306 303 302 301 299 299 298 298 297 295 292 287 281 276 272 268 266 264 263 262 260 257 253 251 249 248 248 248 249 250 250 252 253 256 258 259 257 254 252 252 251 249 248 248 249 249 250 251 252 251 250 251 253 254
282 281 281 280 279 278 279 282 284 287 290 293 293 293 293 295 298 299 300 303 306 308 309 309 308 308 308 309 311 312 310 308 306 306 305 303 303 303 303 303 303 299 292 285 280 277 273 269 265 263 262 260 258 254 250 248 247 247 246 247 248 249 250 252 255 257 258 256 254 251 251 250 250 249 249 249 249 249 251 252 251 249 248 250 251
282 280 278 277 277 278 280 282 284 287 290 291 292 292 293 294 297 298 299 303 307 308 309 308 308 308 309 311 314 315 314 311 310 309 307 305 305 306 307 308 308 304 297 287 281 280 277 274 270 267 264 262 259 255 251 248 247 246 246 246 246 247 248 249 252 254 256 255 254 252 250 249 250 249 249 249 249 250 250 250 251 250 248 249 250
281 280 278 276 276 278 280 282 285 288 290 291 291 290 291 293 295 296 299 304 307 308 308 308 308 309 311 314 317 318 318 316 315 312 309 307 307 308 311 313 312 308 302 295 290 289 287 283 279 276 273 269 266 260 254 250 248 246 245 245 245 246 246 247 249 251 252 253 252 251 249 248 248 248 248 248 248 248 249 249 249 249 249 249 250
280 279 277 275 275 278 281 283 285 288 290 290 290 289 289 292 293 295 299 304 307 308 308 308 309 310 312 315 318 320 320 320 319 316 311 309 309 312 316 319 317 313 310 311 310 308 306 302 296 291 285 280 274 267 260 255 252 249 247 245 245 245 245 245 246 248 250 251 251 251 250 249 248 247 247 247 247 247 248 249 249 249 249 250 250
281 279 277 276 276 278 280 283 285 287 289 289 288 287 288 290 292 294 299 304 307 308 308 308 309 310 312 315 319 321 323 325 324 321 316 313 313 316 321 324 323 320 318 319 318 316 315 313 309 304 299 293 285 278 270 263 258 255 252 248 246 245 245 245 246 247 249 250 251 252 252 251 250 249 249 249 249 249 249 249 249 249 250 250 250
282 280 278 277 277 277 280 283 285 287 288 287 285 284 287 289 290 293 299 304 307 308 308 308 309 311 314 319 324 327 329 331 331 329 325 321 320 321 324 328 328 323 318 316 313 309 307 306 303 299 296 294 291 287 281 274 268 263 259 255 252 250 248 248 248 248 249 250 251 252 253 253 253 252 251 251 251 251 251 251 251 251 251 251 251
284 282 280 278 276 276 279 282 283 285 286 284 282 283 285 288 290 293 298 303 306 307 307 307 308 311 316 322 327 330 334 337 339 337 333 331 330 327 324 324 324 321 319 318 315 308 301 294 287 284 284 285 288 288 284 278 272 267 264 260 258 256 254 253 252 252 252 253 254 255 255 256 256 257 256 255 255 254 254 253 252 252 252 252 253
284 284 282 277 274 274 277 279 281 283 283 282 282 283 284 287 289 293 297 301 304 307 307 306 308 311 317 322 327 331 336 341 345 344 342 341 339 333 321 311 307 308 311 315 318 318 316 307 294 287 287 288 291 294 291 282 272 264 260 257 257 258 258 257 256 256 257 258 260 261 262 262 262 262 262 261 261 260 259 257 256 255 254 254 254
286 284 280 274 271 272 274 276 279 281 282 281 282 282 283 286 288 291 295 298 302 306 307 307 309 311 316 322 329 333 337 342 346 349 350 350 349 344 331 313 302 300 303 309 316 322 324 321 314 307 301 296 295 295 295 292 285 277 270 268 268 266 262 259 257 257 257 258 260 261 262 262 262 263 263 264 264 263 263 262 261 259 258 256 256
286 281 274 269 268 269 271 273 277 279 281 282 282 282 284 286 289 290 293 296 300 304 307 308 308 310 314 321 328 333 337 342 346 350 353 355 354 353 349 339 327 320 316 317 321 323 322 321 318 311 304 298 293 291 290 290 288 285 280 277 278 276 270 262 257 255 255 256 257 259 260 261 261 262 263 264 265 265 266 265 264 262 260 259 258
283 275 267 263 263 265 268 271 275 278 281 283 283 283 283 285 288 290 292 293 297 301 305 307 308 309 312 317 324 329 334 340 345 350 354 356 356 356 356 353 347 342 335 330 327 326 324 322 319 314 310 305 298 291 287 284 282 279 276 274 277 281 279 270 261 256 255 256 258 260 261 261 261 262 263 264 267 269 271 270 267 264 261 259 258
277 267 261 259 260 262 265 269 273 277 281 283 285 284 283 283 285 288 289 291 293 296 300 304 307 309 310 314 318 321 325 332 339 344 348 351 352 354 355 354 353 353 353 350 346 342 339 336 333 332 335 334 326 312 300 293 288 284 284 287 292 300 303 292 273 261 256 257 259 262 263 264 264 264 265 267 270 273 276 277 274 267 261 258 258
269 262 259 259 260 262 265 269 273 276 280 283 285 285 284 283 284 285 286 287 290 293 297 301 304 307 309 310 311 312 316 321 326 330 334 339 343 346 347 348 351 356 358 358 357 355 353 351 349 349 351 351 350 346 339 332 325 316 311 313 317 321 323 321 310 291 274 266 264 266 268 269 269 269 269 271 272 273 276 279 279 270 261 259 258
264 261 261 262 264 266 268 271 274 276 280 283 284 285 284 283 283 284 285 286 287 289 292 296 300 303 305 306 307 309 312 315 316 318 322 326 331 335 337 340 344 348 350 352 353 354 353 353 353 353 354 354 353 353 352 352 353 352 348 343 339 336 334 331 328 325 318 308 298 291 287 283 281 278 274 271 271 272 272 274 274 269 264 262 261
265 264 265 267 269 270 271 272 274 276 279 282 283 284 283 283 282 283 284 286 286 288 289 292 296 300 302 305 307 309 311 312 312 313 316 318 320 322 325 329 334 338 341 343 345 347 349 349 350 351 351 350 350 350 351 352 355 357 358 357 355 352 349 342 337 333 327 320 313 307 304 302 302 298 289 280 275 274 271 268 267 266 266 266 265
270 269 269 271 273 274 274 274 275 277 279 281 283 283 282 282 281 282 283 285 287 288 289 291 293 297 300 303 305 307 308 309 310 311 312 312 312 314 317 322 326 330 333 336 339 341 343 345 345 346 346 346 346 346 346 348 350 353 355 356 357 357 356 355 354 351 346 337 328 319 313 310 306 301 294 287 278 270 264 260 259 259 259 261 260
274 274 272 273 275 276 276 276 276 278 280 281 282 283 281 280 280 281 282 284 286 288 289 290 292 295 297 300 302 304 305 306 307 309 309 309 310 311 314 317 320 323 326 329 332 335 337 339 340 341 340 341 341 342 342 343 345 349 351 353 354 356 358 1 5 7 7 4 357 347 339 332 315 286 266 255 247 242 242 247 254 256 253 250 251
273 274 274 274 273 273 275 276 276 279 282 282 282 282 282 281 280 280 281 283 285 286 288 289 291 293 295 297 300 302 303 304 305 306 307 309 310 311 313 315 317 319 322 324 326 328 331 333 337 338 338 337 337 337 339 341 342 345 348 350 353 357 360 3 9 14 15 14 11 6 2 1 356 319 256 238 232 229 233 244 264 281 278 263 257
270 270 273 274 272 270 272 274 276 279 282 283 283 283 283 282 281 280 281 282 284 285 287 288 289 291 293 295 297 299 300 302 303 304 306 308 310 312 313 315 316 317 319 320 322 323 325 328 331 334 336 337 336 335 335 337 340 342 345 347 352 357 360 2 6 10 12 12 12 11 11 11 13 13 359 288 257 250 251 261 278 298 313 314 301
266 264 266 271 273 272 271 273 276 279 281 284 286 286 285 284 283 282 282 282 284 285 287 288 289 290 291 293 296 297 299 300 301 302 304 306 308 310 312 313 315 316 317 318 319 320 321 324 327 330 334 336 336 335 333 333 335 338 341 344 347 349 353 356 358 359 358 358 358 358 359 359 1 6 12 9 349 317 295 290 294 305 317 325 324
264 260 256 260 269 274 274 274 278 280 282 285 287 287 286 285 284 284 284 284 284 286 287 288 289 289 290 292 294 295 297 299 300 300 301 303 305 307 309 311 312 313 314 315 317 318 319 320 322 326 329 332 334 334 333 331 331 332 334 337 339 340 341 342 343 343 343 344 344 343 343 343 343 344 345 345 342 337 331 325 322 320 320 321 321
263 260 255 253 259 269 275 277 279 282 284 286 287 287 288 287 286 286 286 286 286 286 287 288 289 290 291 292 293 295 296 298 299 299 300 301 301 302 304 306 308 309 311 312 314 315 316 317 318 320 323 325 327 329 329 329 327 326 325 325 326 327 327 327 328 329 330 330 331 330 328 328 329 330 329 328 327 325 324 322 320 318 316 315 314
259 259 257 255 256 263 271 275 278 280 282 284 286 286 287 287 287 287 287 287 287 287 288 288 289 291 291 292 294 294 295 297 298 299 300 300 301 301 302 303 304 306 307 309 310 311 312 313 314 315 317 318 320 322 323 323 323 321 319 317 315 315 315 315 315 317 318 318 318 317 317 317 317 317 317 317 317 316 315 314 313 311 310 309 307
259 257 257 257 257 260 266 270 274 276 279 281 283 285 286 286 286 286 285 285 286 287 288 289 289 290 291 292 292 293 295 295 296 298 299 300 301 302 302 302 302 303 304 305 306 308 309 310 311 312 312 313 314 315 316 318 318 317 315 313 310 308 307 307 307 307 308 308 309 309 309 309 309 309 310 310 310 310 309 309 307 306 306 305 304
260 258 257 258 258 259 262 265 269 272 274 276 279 282 283 284 284 284 283 283 284 285 287 288 289 291 291 292 292 293 294 294 295 296 298 299 300 301 301 301 301 301 302 302 303 304 305 306 307 308 309 310 311 311 311 312 312 312 311 310 309 306 303 301 300 299 299 300 301 303 303 304 305 306 307 307 307 307 306 306 305 304 304 303 303
261 260 258 257 258 259 261 263 267 270 271 271 274 278 280 281 282 281 280 280 282 284 287 289 291 292 292 292 292 292 292 293 294 294 296 297 298 299 299 299 299 299 300 300 301 302 303 303 304 305 306 306 307 308 308 308 308 308 307 307 306 305 303 301 299 297 297 296 296 297 299 300 301 302 303 304 306 306 305 305 304 304 303 303 303
262 262 260 257 256 257 259 261 265 268 267 266 267 272 275 277 278 278 277 278 281 284 286 288 290 291 291 291 290 290 290 290 291 292 293 294 295 296 297 297 297 297 297 297 298 298 299 300 301 302 303 303 304 305 306 306 306 306 306 306 305 305 304 303 302 300 299 298 298 297 297 297 298 299 301 302 303 303 303 303 303 303 303 303 303
259 260 260 256 253 255 257 260 263 266 266 264 263 266 270 272 273 274 275 277 280 284 287 289 290 290 289 288 287 287 288 288 288 290 291 291 292 293 294 295 296 296 295 295 296 296 296 297 298 298 299 300 301 302 303 303 304 304 304 304 305 305 305 304 304 303 302 300 300 299 300 300 301 302 302 303 303 303 303 303 304 304 304 303 303
Height
5703 5703 5702 5701 5700 5699 5699 5700 5700 5700 5699 5699 5699 5699 5699 5699 5699 5698 5698 5698 5698 5697 5697 5697 5696 5696 5696 5696 5697 5697 5697 5696 5696 5696 5696 5696 5696 5697 5698 5698 5700 5702 5703 5704 5706 5708 5710 5713 5715 5716 5718 5720 5722 5724 5727 5728 5729 5731 5733 5733 5734 5736 5738 5739 5740 5745 5749 5749 5750 5751 5751 5750 5752 5754 5756 5758 5759 5760 5762 5763 5763 5764 5767 5771 5773
5699 5699 5698 5697 5696 5696 5696 5696 5697 5696 5696 5696 5696 5696 5695 5695 5695 5695 5694 5694 5694 5693 5693 5692 5692 5691 5691 5691 5691 5690 5690 5690 5690 5690 5690 5689 5690 5690 5690 5691 5692 5694 5695 5697 5698 5700 5702 5704 5706 5708 5709 5712 5714 5716 5718 5721 5722 5724 5726 5726 5728 5731 5731 5731 5733 5737 5743 5745 5745 5746 5747 5745 5747 5750 5751 5752 5755 5756 5757 5758 5758 5758 5761 5763 5766
5695 5695 5694 5693 5693 5693 5692 5693 5693 5692 5692 5692 5692 5692 5692 5691 5691 5691 5690 5690 5689 5689 5688 5688 5687 5687 5686 5685 5685 5684 5683 5683 5683 5683 5682 5682 5682 5682 5682 5683 5684 5685 5687 5689 5690 5691 5694 5696 5697 5699 5700 5703 5705 5707 5710 5712 5714 5716 5718 5719 5722 5724 5724 5724 5726 5729 5734 5740 5740 5740 5742 5742 5742 5744 5745 5746 5749 5751 5752 5754 5754 5754 5755 5757 5760
5691 5691 5691 5690 5690 5689 5689 5689 5689 5688 5688 5688 5688 5688 5688 5687 5687 5687 5686 5686 5685 5684 5684 5683 5682 5682 5681 5680 5679 5678 5677 5676 5675 5674 5674 5673 5673 5674 5674 5675 5675 5677 5679 5681 5682 5684 5685 5687 5689 5690 5692 5694 5696 5698 5700 5703 5705 5707 5709 5712 5714 5716 5717 5718 5720 5721 5725 5731 5734 5734 5735 5737 5737 5739 5740 5740 5742 5744 5746 5748 5749 5749 5750 5752 5754
5687 5687 5687 5687 5686 5686 5686 5685 5685 5684 5684 5684 5684 5684 5683 5683 5683 5682 5682 5681 5681 5680 5679 5678 5677 5676 5675 5674 5673 5672 5671 5669 5668 5666 5665 5665 5665 5665 5665 5666 5667 5669 5671 5672 5673 5675 5677 5679 5681 5682 5684 5686 5687 5689 5691 5694 5696 5698 5701 5704 5706 5707 5709 5711 5713 5715 5717 5721 5726 5728 5729 5730 5731 5733 5734 5735 5736 5738 5739 5741 5743 5743 5744 5747 5748
5684 5683 5683 5682 5682 5682 5682 5681 5681 5680 5680 5680 5679 5679 5679 5679 5678 5678 5677 5676 5676 5675 5674 5674 5672 5671 5670 5669 5668 5667 5665 5664 5662 5660 5658 5657 5657 5657 5657 5658 5659 5660 5661 5662 5664 5666 5669 5671 5673 5674 5676 5677 5678 5680 5683 5684 5686 5689 5692 5695 5697 5698 5701 5704 5707 5709 5710 5712 5716 5720 5722 5723 5724 5726 5728 5728 5729 5731 5732 5734 5736 5737 5739 5741 5742
5680 5679 5679 5678 5678 5679 5678 5677 5677 5676 5676 5676 5675 5675 5675 5674 5673 5672 5671 5671 5670 5670 5669 5668 5667 5666 5665 5664 5663 5661 5660 5658 5656 5654 5653 5652 5651 5650 5650 5650 5650 5651 5652 5653 5655 5658 5661 5664 5666 5667 5668 5670 5671 5672 5674 5675 5677 5680 5683 5686 5688 5690 5692 5694 5698 5701 5702 5703 5706 5710 5713 5716 5716 5718 5721 5721 5721 5724 5727 5729 5731 5731 5732 5734 5736
5676 5675 5675 5675 5675 5675 5674 5673 5673 5672 5672 5672 5671 5671 5670 5669 5668 5667 5666 5665 5665 5664 5663 5662 5662 5661 5660 5659 5658 5657 5655 5653 5651 5650 5648 5647 5645 5644 5643 5642 5643 5643 5644 5646 5648 5650 5654 5657 5658 5660 5662 5664 5665 5665 5666 5667 5669 5672 5675 5677 5679 5682 5684 5686 5689 5692 5694 5695 5696 5700 5704 5708 5709 5710 5713 5713 5714 5718 5721 5722 5723 5724 5725 5726 5728
5672 5671 5671 5671 5671 5670 5669 5669 5668 5668 5668 5668 5667 5666 5665 5664 5663 5662 5661 5660 5660 5659 5658 5657 5656 5655 5654 5653 5652 5651 5650 5648 5646 5645 5644 5642 5640 5639 5637 5636 5636 5637 5639 5640 5641 5644 5647 5649 5651 5653 5655 5657 5659 5659 5660 5660 5661 5664 5667 5668 5670 5673 5675 5678 5680 5684 5687 5688 5689 5692 5696 5699 5701 5703 5705 5706 5708 5711 5712 5713 5715 5717 5719 5720 5721
5668 5668 5667 5667 5667 5666 5665 5664 5664 5664 5664 5663 5662 5662 5661 5660 5659 5658 5657 5656 5655 5654 5653 5652 5651 5650 5649 5648 5647 5646 5644 5643 5641 5640 5639 5637 5635 5634 5633 5632 5631 5632 5633 5635 5636 5638 5640 5642 5644 5646 5648 5650 5652 5653 5653 5653 5654 5656 5658 5660 5662 5664 5666 5668 5671 5675 5678 5680 5681 5685 5688 5691 5693 5695 5696 5699 5701 5703 5704 5705 5706 5709 5711 5713 5715
5664 5664 5663 5663 5662 5662 5661 5660 5660 5660 5659 5658 5658 5657 5656 5655 5654 5653 5652 5651 5650 5649 5648 5647 5645 5645 5643 5642 5641 5640 5639 5637 5636 5635 5633 5632 5630 5629 5628 5628 5627 5627 5628 5630 5631 5633 5634 5636 5637 5639 5641 5642 5644 5645 5646 5647 5648 5649 5650 5652 5654 5656 5658 5660 5663 5666 5670 5672 5673 5676 5679 5682 5684 5686 5688 5691 5694 5695 5695 5697 5698 5700 5703 5705 5709
5660 5660 5659 5659 5658 5657 5656 5656 5656 5656 5655 5654 5653 5652 5651 5651 5650 5649 5648 5647 5646 5644 5643 5642 5641 5639 5638 5637 5636 5635 5633 5632 5631 5630 5628 5627 5626 5625 5624 5623 5623 5623 5624 5625 5626 5628 5629 5630 5630 5632 5633 5634 5636 5637 5638 5640 5641 5641 5642 5645 5648 5650 5651 5652 5655 5658 5661 5663 5664 5666 5670 5674 5675 5677 5679 5683 5685 5686 5687 5689 5691 5693 5695 5698 5701
5656 5656 5655 5655 5654 5653 5653 5652 5652 5651 5650 5650 5649 5648 5647 5647 5646 5644 5643 5642 5641 5640 5638 5637 5636 5635 5634 5632 5631 5630 5628 5627 5626 5625 5623 5622 5621 5620 5619 5618 5618 5619 5619 5619 5620 5621 5622 5623 5624 5625 5626 5627 5628 5630 5631 5633 5634 5635 5636 5639 5641 5643 5644 5645 5647 5649 5654 5656 5655 5657 5662 5665 5666 5668 5671 5674 5677 5678 5679 5681 5683 5686 5688 5690 5692
5652 5652 5652 5651 5650 5649 5649 5648 5648 5647 5646 5646 5645 5644 5643 5642 5641 5640 5639 5638 5636 5635 5634 5633 5631 5630 5629 5628 5626 5625 5623 5622 5621 5620 5618 5617 5616 5615 5614 5613 5613 5613 5613 5613 5614 5615 5615 5617 5618 5618 5619 5619 5620 5622 5624 5626 5628 5629 5630 5632 5634 5636 5637 5638 5639 5641 5645 5647 5648 5650 5653 5655 5657 5660 5662 5664 5668 5670 5670 5671 5673 5676 5679 5681 5683
5648 5648 5648 5647 5646 5646 5645 5645 5644 5643 5642 5642 5641 5640 5639 5638 5637 5635 5634 5633 5631 5630 5629 5628 5627 5625 5624 5623 5621 5620 5619 5617 5616 5615 5614 5612 5611 5610 5609 5608 5608 5607 5607 5607 5607 5608 5609 5610 5611 5611 5611 5612 5613 5615 5618 5620 5622 5623 5624 5626 5627 5628 5630 5631 5632 5633 5635 5637 5639 5642 5645 5646 5648 5651 5653 5655 5657 5659 5660 5662 5664 5666 5669 5672 5674
5645 5644 5644 5643 5642 5642 5642 5641 5640 5639 5638 5637 5637 5636 5635 5634 5632 5631 5629 5628 5627 5626 5624 5623 5622 5621 5619 5618 5617 5615 5614 5612 5611 5610 5609 5608 5606 5605 5604 5603 5602 5601 5600 5600 5600 5601 5602 5602 5603 5604 5604 5605 5607 5609 5612 5614 5615 5616 5618 5620 5621 5622 5623 5624 5624 5625 5627 5629 5632 5635 5638 5639 5640 5642 5643 5644 5647 5649 5650 5652 5656 5658 5660 5663 5665
5641 5640 5640 5639 5638 5638 5638 5637 5636 5635 5634 5634 5633 5632 5631 5629 5628 5626 5625 5623 5622 5621 5620 5618 5617 5616 5615 5613 5612 5610 5609 5607 5606 5605 5604 5603 5602 5600 5599 5598 5596 5595 5595 5594 5594 5594 5594 5595 5595 5597 5597 5599 5601 5603 5605 5606 5608 5609 5611 5613 5614 5616 5617 5617 5617 5617 5620 5623 5626 5628 5631 5632 5633 5634 5635 5636 5638 5640 5641 5644 5649 5652 5653 5655 5657
5637 5636 5636 5635 5635 5634 5634 5633 5632 5631 5630 5630 5629 5628 5626 5625 5623 5622 5621 5619 5618 5617 5615 5614 5613 5611 5610 5609 5607 5606 5604 5603 5601 5600 5599 5598 5597 5596 5594 5593 5591 5590 5589 5588 5588 5588 5587 5588 5588 5589 5591 5592 5594 5596 5597 5598 5600 5602 5604 5606 5607 5608 5609 5610 5610 5611 5613 5616 5619 5620 5622 5623 5624 5626 5628 5628 5630 5631 5634 5638 5641 5643 5644 5647 5649
5633 5632 5632 5631 5631 5630 5630 5629 5628 5627 5626 5626 5625 5623 5622 5621 5619 5618 5617 5615 5614 5612 5611 5610 5608 5607 5605 5604 5602 5601 5599 5598 5597 5596 5594 5593 5592 5590 5589 5588 5586 5585 5584 5583 5582 5582 5581 5581 5581 5582 5584 5585 5587 5588 5589 5590 5593 5595 5597 5599 5600 5601 5601 5602 5604 5604 5605 5608 5610 5611 5613 5614 5615 5618 5620 5621 5622 5623 5626 5630 5631 5632 5635 5639 5641
5629 5628 5628 5627 5627 5626 5625 5625 5624 5623 5622 5621 5620 5619 5618 5617 5615 5614 5613 5611 5610 5608 5607 5606 5604 5603 5601 5600 5598 5597 5595 5593 5592 5591 5590 5588 5587 5585 5583 5582 5581 5579 5578 5577 5576 5575 5575 5574 5575 5575 5577 5577 5578 5579 5580 5583 5585 5587 5589 5591 5592 5593 5595 5596 5596 5596 5598 5599 5601 5602 5604 5606 5607 5610 5611 5613 5615 5616 5618 5622 5623 5624 5627 5630 5633
5625 5624 5624 5623 5622 5622 5621 5621 5620 5619 5618 5617 5616 5615 5614 5613 5612 5610 5609 5607 5606 5604 5603 5601 5600 5599 5597 5596 5595 5593 5591 5589 5588 5586 5585 5583 5581 5580 5578 5576 5575 5573 5572 5571 5570 5569 5568 5568 5568 5569 5569 5569 5570 5571 5573 5576 5578 5580 5581 5583 5585 5586 5588 5588 5588 5589 5590 5592 5593 5594 5596 5598 5600 5602 5603 5605 5606 5608 5610 5613 5615 5617 5620 5623 5626
5621 5620 5620 5619 5618 5618 5617 5617 5616 5615 5614 5613 5612 5611 5610 5609 5608 5607 5605 5604 5602 5600 5599 5597 5596 5595 5594 5593 5591 5590 5588 5586 5584 5582 5580 5578 5576 5574 5572 5570 5569 5567 5565 5564 5563 5562 5561 5561 5561 5561 5562 5562 5563 5565 5566 5568 5570 5572 5573 5575 5577 5579 5580 5581 5582 5582 5583 5585 5586 5587 5589 5591 5592 5594 5596 5597 5598 5599 5601 5605 5609 5613 5615 5616 5618
5616 5616 5615 5615 5615 5614 5614 5613 5613 5612 5611 5610 5609 5608 5607 5606 5605 5603 5602 5600 5599 5597 5596 5594 5593 5592 5590 5590 5588 5587 5585 5582 5580 5577 5575 5573 5571 5569 5567 5566 5564 5561 5559 5558 5556 5555 5554 5554 5554 5554 5554 5555 5556 5558 5559 5560 5561 5563 5565 5567 5569 5571 5573 5575 5576 5576 5576 5577 5579 5580 5582 5583 5585 5587 5588 5589 5591 5592 5594 5598 5602 5606 5608 5609 5610
5612 5611 5611 5611 5611 5610 5610 5609 5609 5608 5608 5607 5606 5605 5604 5603 5602 5600 5599 5597 5596 5595 5593 5592 5590 5589 5588 5586 5585 5584 5581 5579 5576 5574 5571 5569 5567 5565 5563 5561 5559 5556 5554 5552 5550 5549 5548 5548 5547 5547 5547 5548 5549 5550 5552 5553 5554 5556 5558 5560 5562 5564 5566 5568 5569 5570 5570 5571 5572 5574 5575 5576 5578 5579 5581 5583 5585 5586 5589 5591 5594 5598 5600 5601 5602
5608 5607 5607 5607 5607 5606 5606 5606 5605 5605 5604 5603 5602 5601 5601 5600 5599 5597 5596 5595 5593 5592 5591 5589 5588 5586 5585 5583 5582 5580 5578 5575 5573 5570 5568 5566 5564 5562 5559 5557 5554 5551 5548 5546 5545 5544 5543 5542 5542 5541 5541 5541 5542 5543 5545 5546 5547 5549 5551 5552 5555 5557 5559 5561 5562 5563 5564 5565 5566 5567 5569 5570 5571 5572 5574 5576 5578 5580 5582 5585 5588 5590 5591 5592 5592
5604 5603 5603 5603 5603 5603 5602 5602 5601 5601 5601 5600 5599 5598 5597 5597 5596 5594 5593 5592 5591 5590 5588 5587 5585 5584 5582 5580 5579 5577 5574 5572 5569 5567 5565 5562 5560 5558 5556 5553 5549 5546 5544 5542 5541 5540 5539 5538 5537 5537 5537 5537 5537 5537 5538 5539 5541 5542 5544 5546 5548 5550 5552 5554 5556 5557 5558 5559 5560 5561 5562 5563 5564 5566 5567 5569 5570 5572 5575 5578 5580 5581 5581 5582 5584
5601 5600 5599 5599 5599 5599 5598 5598 5598 5597 5597 5597 5596 5595 5594 5593 5592 5591 5590 5589 5588 5587 5586 5584 5583 5581 5580 5578 5576 5574 5571 5569 5566 5564 5561 5559 5557 5555 5553 5549 5546 5543 5541 5539 5538 5537 5536 5535 5534 5534 5533 5533 5533 5533 5533 5534 5535 5536 5538 5540 5541 5543 5545 5547 5549 5551 5552 5553 5554 5555 5556 5557 5558 5560 5560 5562 5563 5565 5568 5570 5571 5572 5572 5574 5575
5597 5596 5595 5595 5595 5595 5595 5594 5594 5594 5593 5593 5592 5592 5591 5590 5589 5588 5588 5587 5586 5585 5583 5582 5580 5579 5577 5575 5573 5571 5569 5566 5563 5561 5559 5557 5554 5552 5550 5547 5544 5541 5539 5538 5537 5536 5535 5534 5533 5532 5531 5530 5530 5529 5529 5530 5530 5531 5533 5535 5536 5538 5539 5541 5543 5545 5546 5547 5548 5549 5550 5551 5553 5553 5554 5555 5557 5558 5560 5561 5562 5563 5564 5565 5566
5593 5592 5592 5591 5591 5591 5591 5591 5591 5590 5590 5590 5589 5589 5588 5587 5586 5586 5585 5584 5583 5582 5581 5580 5578 5576 5574 5572 5570 5568 5566 5563 5561 5558 5556 5554 5552 5550 5548 5545 5543 5541 5539 5538 5536 5535 5534 5533 5532 5531 5530 5529 5528 5528 5527 5527 5527 5528 5529 5530 5531 5533 5534 5536 5537 5538 5540 5541 5542 5543 5544 5545 5546 5547 5548 5549 5550 5551 5552 5553 5554 5555 5555 5556 5558
5589 5589 5588 5588 5588 5588 5588 5588 5587 5587 5587 5587 5586 5586 5585 5584 5584 5583 5582 5581 5581 5580 5579 5577 5576 5574 5572 5570 5568 5566 5564 5561 5559 5556 5554 5552 5550 5548 5546 5544 5542 5541 5539 5538 5537 5535 5534 5532 5531 5530 5529 5528 5527 5526 5526 5525 5525 5525 5525 5526 5527 5528 5529 5530 5531 5532 5533 5534 5535 5536 5537 5538 5539 5540 5540 5541 5542 5543 5544 5545 5545 5546 5547 5548 5549
5586 5585 5585 5584 5584 5584 5585 5584 5584 5584 5584 5583 5583 5583 5582 5582 5581 5580 5579 5579 5578 5577 5576 5575 5574 5572 5570 5568 5567 5565 5563 5560 5558 5555 5552 5550 5548 5546 5544 5543 5542 5540 5539 5538 5537 5535 5534 5532 5531 5529 5528 5527 5526 5525 5524 5524 5523 5523 5523 5523 5524 5524 5525 5525 5526 5526 5527 5528 5529 5530 5530 5531 5531 5532 5533 5533 5534 5535 5536 5536 5537 5538 5539 5539 5541
5582 5581 5581 5581 5581 5581 5581 5581 5581 5581 5580 5580 5580 5580 5579 5579 5578 5578 5577 5576 5576 5575 5574 5573 5572 5570 5568 5567 5565 5563 5561 5559 5557 5554 5552 5549 5547 5545 5543 5542 5540 5539 5538 5537 5536 5534 5532 5531 5529 5528 5527 5525 5524 5523 5522 5522 5521 5521 5520 5520 5520 5520 5520 5520 5520 5521 5521 5522 5522 5523 5523 5524 5524 5525 5526 5526 5527 5528 5528 5529 5529 5530 5530 5531 5532
5578 5578 5578 5578 5578 5578 5578 5578 5578 5578 5577 5577 5577 5577 5576 5576 5575 5575 5574 5574 5573 5572 5572 5571 5570 5568 5567 5565 5563 5562 5560 5557 5555 5553 5550 5548 5546 5544 5542 5540 5539 5538 5536 5535 5534 5533 5531 5529 5528 5526 5525 5524 5523 5522 5521 5520 5519 5518 5518 5517 5517 5516 5515 5515 5515 5515 5515 5516 5516 5517 5518 5518 5519 5519 5519 5520 5520 5521 5521 5522 5522 5522 5523 5524 5525
5574 5574 5574 5574 5575 5575 5575 5575 5575 5575 5575 5574 5574 5574 5573 5573 5573 5572 5572 5571 5571 5570 5570 5569 5568 5566 5565 5563 5562 5560 5559 5557 5555 5552 5550 5548 5546 5544 5542 5540 5539 5537 5536 5535 5533 5532 5530 5529 5527 5525 5524 5522 5521 5520 5519 5518 5518 5517 5516 5515 5514 5513 5511 5510 5509 5509 5510 5511 5511 5512 5513 5513 5513 5514 5514 5514 5515 5515 5515 5515 5515 5515 5515 5516 5517
5571 5571 5571 5571 5571 5571 5572 5572 5572 5572 5572 5571 5571 5571 5571 5570 5570 5570 5569 5569 5568 5568 5567 5567 5565 5564 5563 5562 5560 5559 5558 5556 5554 5552 5551 5549 5547 5545 5543 5541 5540 5538 5536 5534 5533 5531 5530 5528 5527 5525 5523 5521 5520 5519 5518 5516 5515 5514 5513 5512 5511 5509 5508 5506 5506 5506 5506 5507 5507 5508 5508 5508 5508 5508 5508 5509 5509 5509 5509 5508 5508 5507 5507 5508 5509
5568 5568 5568 5568 5568 5569 5569 5569 5569 5569 5569 5569 5568 5568 5568 5567 5567 5567 5567 5566 5566 5565 5565 5564 5563 5562 5561 5560 5559 5558 5556 5555 5553 5552 5550 5549 5547 5545 5543 5542 5540 5538 5536 5534 5533 5531 5529 5528 5526 5524 5522 5521 5519 5518 5516 5515 5513 5512 5511 5509 5508 5506 5505 5504 5503 5503 5504 5504 5504 5504 5504 5504 5503 5503 5503 5504 5504 5504 5504 5504 5503 5502 5502 5503 5503
5566 5566 5566 5566 5566 5566 5566 5566 5566 5566 5566 5566 5565 5565 5565 5565 5564 5564 5564 5564 5563 5563 5562 5561 5561 5560 5559 5558 5557 5556 5555 5553 5552 5551 5549 5548 5546 5544 5543 5541 5539 5537 5536 5534 5532 5531 5529 5527 5526 5524 5522 5520 5518 5517 5515 5514 5512 5511 5509 5508 5506 5505 5504 5502 5501 5501 5501 5501 5501 5500 5500 5499 5499 5499 5499 5499 5500 5500 5500 5500 5500 5499 5499 5500 5500
5564 5563 5563 5563 5563 5563 5563 5563 5563 5563 5563 5563 5562 5562 5562 5562 5562 5561 5561 5561 5561 5560 5559 5559 5558 5557 5557 5556 5555 5554 5553 5552 5551 5549 5548 5547 5545 5544 5542 5541 5539 5537 5535 5534 5532 5530 5529 5527 5526 5524 5522 5521 5519 5517 5515 5513 5512 5510 5509 5507 5506 5505 5504 5503 5502 5501 5500 5499 5499 5498 5497 5497 5496 5496 5496 5496 5496 5497 5497 5498 5498 5497 5497 5498 5499
5561 5561 5561 5561 5560 5560 5560 5560 5560 5560 5560 5560 5559 5559 5559 5559 5559 5558 5558 5558 5557 5557 5556 5556 5555 5554 5554 5553 5552 5551 5550 5549 5548 5547 5546 5545 5544 5542 5541 5540 5538 5536 5535 5533 5531 5530 5528 5527 5525 5524 5522 5521 5519 5517 5516 5514 5512 5511 5509 5508 5506 5505 5504 5503 5502 5501 5500 5500 5499 5498 5497 5496 5495 5494 5494 5494 5495 5495 5496 5497 5497 5496 5497 5497 5498
5559 5558 5558 5558 5558 5558 5557 5557 5557 5557 5557 5557 5557 5556 5556 5556 5556 5555 5555 5555 5554 5554 5553 5553 5552 5551 5551 5550 5549 5549 5548 5547 5546 5545 5544 5543 5542 5541 5539 5538 5536 5535 5533 5532 5530 5529 5527 5526 5525 5523 5521 5520 5519 5517 5516 5514 5513 5511 5510 5508 5507 5506 5505 5504 5502 5501 5500 5499 5499 5498 5498 5497 5496 5495 5495 5495 5495 5495 5496 5496 5496 5496 5496 5496 5496
5556 5556 5555 5555 5555 5555 5555 5555 5554 5554 5554 5554 5554 5554 5553 5553 5553 5552 5552 5552 5551 5551 5550 5550 5549 5548 5548 5547 5546 5546 5545 5544 5543 5542 5541 5540 5539 5538 5537 5536 5535 5533 5532 5530 5529 5528 5526 5525 5524 5522 5521 5519 5518 5516 5515 5514 5512 5511 5510 5509 5507 5506 5505 5504 5503 5502 5501 5500 5500 5499 5499 5498 5497 5496 5495 5495 5495 5495 5495 5495 5495 5495 5494 5494 5494
5554 5554 5553 5553 5553 5553 5553 5552 5552 5552 5551 5551 5551 5551 5551 5550 5550 5550 5549 5549 5548 5548 5547 5547 5546 5546 5545 5544 5544 5543 5542 5542 5541 5540 5539 5538 5537 5536 5535 5534 5533 5531 5530 5529 5528 5526 5525 5524 5522 5521 5520 5518 5517 5515 5514 5513 5512 5511 5510 5508 5507 5506 5505 5504 5503 5502 5502 5501 5501 5500 5499 5499 5498 5497 5496 5495 5494 5494 5494 5494 5494 5494 5493 5493 5493
5551 5551 5551 5551 5550 5550 5550 5550 5549 5549 5549 5549 5548 5548 5548 5548 5547 5547 5546 5546 5545 5545 5544 5544 5543 5543 5542 5541 5541 5540 5539 5539 5538 5538 5537 5536 5535 5534 5533 5532 5531 5530 5529 5527 5526 5525 5524 5522 5521 5520 5518 5517 5516 5514 5513 5512 5511 5510 5509 5508 5507 5506 5505 5504 5504 5503 5502 5502 5501 5500 5499 5499 5498 5497 5496 5495 5495 5494 5494 5493 5493 5493 5492 5492 5492
5548 5548 5549 5548 5548 5547 5547 5547 5547 5546 5546 5546 5546 5545 5545 5545 5545 5544 5544 5543 5542 5542 5541 5541 5540 5540 5539 5539 5538 5537 5537 5536 5536 5535 5534 5533 5532 5532 5531 5530 5529 5528 5527 5525 5524 5523 5522 5521 5519 5518 5517 5515 5514 5513 5512 5511 5510 5509 5508 5507 5506 5506 5505 5504 5503 5503 5502 5501 5501 5500 5499 5499 5498 5497 5496 5495 5494 5494 5493 5493 5492 5491 5491 5490 5490
5544 5544 5545 5546 5545 5544 5544 5544 5544 5544 5543 5543 5543 5543 5542 5542 5542 5541 5541 5540 5540 5539 5539 5538 5538 5537 5536 5536 5535 5535 5534 5533 5533 5532 5531 5531 5530 5529 5528 5527 5526 5526 5524 5523 5522 5521 5520 5519 5518 5516 5515 5514 5513 5512 5511 5510 5509 5508 5507 5507 5506 5505 5504 5504 5503 5502 5501 5501 5500 5500 5499 5498 5497 5497 5496 5495 5494 5493 5492 5491 5491 5490 5489 5489 5488
5540 5540 5541 5541 5542 5542 5541 5541 5541 5541 5541 5540 5540 5540 5539 5539 5539 5538 5538 5537 5537 5536 5536 5535 5535 5534 5534 5533 5532 5532 5531 5530 5530 5529 5528 5528 5527 5526 5526 5525 5524 5523 5522 5521 5520 5519 5518 5517 5516 5515 5514 5513 5511 5510 5509 5508 5508 5507 5506 5505 5505 5504 5503 5503 5502 5501 5500 5500 5499 5498 5498 5497 5496 5496 5495 5494 5493 5492 5491 5491 5490 5489 5488 5487 5487
5536 5536 5536 5536 5537 5538 5538 5538 5537 5537 5537 5537 5537 5537 5537 5536 5536 5535 5535 5534 5534 5533 5533 5532 5532 5531 5531 5530 5529 5529 5528 5528 5527 5526 5525 5525 5524 5523 5523 5522 5521 5520 5520 5519 5518 5517 5516 5515 5514 5513 5512 5511 5510 5509 5508 5507 5506 5505 5504 5503 5503 5502 5501 5501 5500 5499 5499 5498 5497 5496 5496 5495 5494 5494 5493 5492 5491 5490 5490 5489 5488 5487 5486 5485 5484
5530 5530 5531 5531 5532 5533 5534 5534 5534 5534 5534 5534 5534 5534 5533 5533 5532 5532 5532 5531 5530 5530 5530 5529 5529 5528 5528 5527 5526 5526 5525 5525 5524 5523 5522 5522 5521 5520 5519 5519 5518 5517 5516 5516 5515 5514 5513 5512 5511 5510 5509 5508 5507 5506 5505 5505 5504 5503 5502 5501 5500 5499 5499 5498 5498 5497 5496 5496 5495 5494 5493 5492 5491 5491 5490 5489 5488 5487 5486 5486 5485 5484 5483 5482 5481
5525 5525 5525 5526 5526 5528 5529 5529 5530 5530 5530 5530 5530 5530 5530 5529 5529 5529 5528 5528 5527 5527 5527 5526 5526 5525 5525 5524 5523 5523 5522 5521 5521 5520 5519 5518 5518 5517 5516 5515 5515 5514 5513 5512 5512 5511 5510 5509 5508 5507 5506 5505 5504 5504 5503 5502 5501 5500 5500 5499 5498 5497 5496 5495 5495 5494 5493 5493 5492 5491 5490 5489 5489 5488 5487 5486 5485 5484 5483 5482 5481 5480 5479 5478 5477
5520 5520 5520 5521 5521 5523 5524 5525 5525 5526 5526 5526 5526 5526 5526 5526 5525 5525 5525 5524 5524 5524 5523 5523 5522 5522 5521 5521 5520 5519 5519 5518 5517 5516 5516 5515 5514 5514 5513 5512 5511 5510 5510 5509 5508 5507 5507 5506 5505 5504 5503 5502 5501 5501 5500 5499 5498 5497 5497 5496 5495 5494 5493 5492 5491 5491 5490 5489 5488 5488 5487 5486 5485 5484 5484 5483 5482 5481 5479 5478 5477 5476 5475 5474 5472
5515 5516 5516 5516 5517 5518 5519 5520 5521 5521 5521 5521 5521 5522 5521 5521 5521 5521 5521 5521 5520 5520 5519 5519 5519 5518 5517 5517 5516 5516 5515 5514 5514 5513 5512 5511 5511 5510 5509 5508 5508 5507 5506 5505 5504 5504 5503 5502 5502 5501 5500 5499 5498 5497 5497 5496 5495 5494 5493 5493 5492 5491 5490 5489 5488 5487 5486 5486 5485 5484 5483 5482 5481 5480 5479 5479 5478 5476 5475 5474 5473 5472 5470 5469 5468